Погода в Плаве

Черногория     42°35′51″N   19°56′23″E
темп.,
°C
ветер,
м/с
пор.,
м/с
влажн.,
%
обл.,
%
осадки,
мм/ч
давл.,
гПа
погр.,
м
11 мая, вт
вт1123:00+9сз11870 0.0 101912
02:00+8сз11780 0.0 101811
05:00+7сз11600 0.0 101811
08:00+13ююз11570 0.0 1017154
11:00+16ю225248 0.0 1015992
14:00+17ю325446 0.0 10141400
17:00+16ююз226013 0.1 10131090
20:00+10з22901 0.1 101417
12 мая, ср
ср1223:00+8з22860 0.0 101418
02:00+7з32890 0.0 101333
05:00+7з22645 0.0 101126
08:00+10зюз336651 0.0 1010335
11:00+11юз336993 0.0 1010587
14:00+10зюз3486100 1.2 1009799
17:00+10зюз35602 1.0 10081356
20:00+5з32912 1.0 101034
13 мая, чт
чт1323:00+3зсз32921 0.0 101238
02:00+3зсз22830 0.0 101125
05:00+2з228655 0.0 101026
08:00+7юз237990 0.1 1008387
11:00+7ююз3382100 0.6 1008906
14:00+6юз349286 2.6 1009591
17:00+5зюз359454 0.5 1009469
20:00+5юз2398100 0.8 1010198
14 мая, пт
пт1423:00+5з249779 1.2 1011338
02:00+4зюз2298100 1.8 1011124
05:00+4юз239768 0.7 1011114
08:00+6юз34836 1.4 1011614
11:00+9юз476073 0.1 10121577
14:00+10юз485819 0.3 10121712
17:00+9юз365959 0.1 10131473
20:00+4з2288100 0.1 101525
15 мая, сб
сб1523:00+4з228662 0.1 101546
02:00+4ююз1298100 1.9 1014187
05:00+5юз2398100 3.3 1012383
08:00+5ю3397100 4.6 1011354
11:00+4ю1295100 5.3 1012305
14:00+4ю1297100 11.9 1011399
17:00+4з1297100 1.6 1011337
20:00+4сз1196100 2.3 1011160